Content
SEND FEEDBACK

Daily
Averages
Monthly
Summary
United States of America

FAIRFIELD, MAINE


Home > North America > United States > Maine
Elevation: 163 feet     Latitude: 44 33N     Longitude: 069 39W

WEATHER
 
SELECT A DAY
Number of Records: 43,474;   Date Range: 9/1/12 - 9/18/14
 
SHARE

PRINT THIS DATA

[ ← Previous Day ]
WEATHER ALMANAC - JANUARY 31, 2013
[ Next Day → ]
[ °C ]   °F
Weather ElementAverageHighLow
Temperature45.1 °F57.2 °F (8:15 am)28.4 °F (11:35 pm)
Dewpoint35.8 °F55.4 °F (7:35 am)6.8 °F (10:55 pm)
Humidity73.2 %100 % (12:55 am)37 % (10:55 pm)
Barometer29.08 in29.37 in (11:55 pm)28.76 in (10:55 am)
Wind Speed15.1 mph26.5 mph (11:55 pm)
Wind Gust40.3 mph (1:55 pm)
Weather ElementAverage
Visibility7.8 mi
Wind DirectionSW (224.8 °)

Weather ElementTotal
Precipitation0.60 in
Heating Degree Days22.2 (Base 65)
Averaged from 67 records on January 31, 2013
WEATHER CONDITIONS BREAKOUT
WIND DIRECTION BREAKOUT
WEATHER BY HOUR - JANUARY 31, 2013
[ °C ]   °F
Local TimeTemperatureDewpointHumidityBarometerVisibilityWind DirectionWind SpeedGust SpeedPrecipitationEventsConditions
12:35 AM51.8 °F50.0 °F94 %29.35 in0.5 miSouth (180°)9.2 mph17.3 mphOvercast
12:55 AM51.8 °F51.8 °F100 %29.36 in0.5 miSouth (190°)10.4 mph16.1 mphOvercast
1:35 AM51.8 °F50.0 °F94 %29.32 in0.8 miSouth (180°)8.1 mph0.01 inOvercast
1:55 AM51.8 °F51.8 °F100 %29.32 in1.8 miSouth (190°)8.1 mph0.01 inOvercast
2:15 AM51.8 °F51.8 °F100 %29.28 in2.5 miSouth (190°)8.1 mph18.4 mphOvercast
2:35 AM51.8 °F50.0 °F94 %29.26 in1.5 miSouth (180°)9.2 mph16.1 mphOvercast
2:55 AM53.6 °F53.6 °F100 %29.23 in3.0 miSouth (180°)11.5 mph21.9 mphOvercast
3:15 AM53.6 °F51.8 °F94 %29.20 in4.0 miSouth (190°)16.1 mph29.9 mph0.01 inOvercast
3:35 AM55.4 °F53.6 °F94 %29.17 in5.0 miSouth (180°)12.7 mph24.2 mph0.02 inOvercast
3:55 AM53.6 °F53.6 °F100 %29.15 in5.0 miSouth (180°)16.1 mph29.9 mph0.06 inOvercast
4:15 AM55.4 °F53.6 °F94 %29.13 in5.0 miSouth (180°)15.0 mph27.6 mphOvercast
4:35 AM55.4 °F53.6 °F94 %29.10 in5.0 miSouth (180°)15.0 mph31.1 mphOvercast
5:15 AM55.4 °F53.6 °F94 %29.06 in3.0 miSouth (180°)15.0 mph32.2 mphOvercast
5:35 AM53.6 °F53.6 °F100 %29.04 in5.0 miSouth (180°)10.4 mph24.2 mphOvercast
5:55 AM53.6 °F53.6 °F100 %29.03 in2.5 miSouth (180°)15.0 mph28.8 mphOvercast
6:15 AM53.6 °F51.8 °F94 %29.02 in3.0 miSouth (180°)15.0 mph27.6 mphOvercast
6:35 AM53.6 °F53.6 °F100 %28.99 in6.0 miSouth (180°)11.5 mph26.5 mphOvercast
6:55 AM53.6 °F53.6 °F100 %28.96 in8.0 miSouth (180°)12.7 mph24.2 mph0.09 inOvercast
7:15 AM55.4 °F53.6 °F94 %28.93 in7.0 miSouth (180°)19.6 mph35.7 mph0.04 inOvercast
7:35 AM55.4 °F55.4 °F100 %28.89 in4.0 miSouth (180°)17.3 mph36.8 mph0.07 inOvercast
7:55 AM55.4 °F55.4 °F100 %28.88 in4.0 miSouth (190°)17.3 mph34.5 mph0.10 inOvercast
8:15 AM57.2 °F55.4 °F94 %28.88 in5.0 miSouth (190°)18.4 mph38.0 mph0.03 inOvercast
8:35 AM55.4 °F53.6 °F94 %28.88 in9.0 miSSW (200°)19.6 mph36.8 mph0.04 inOvercast
8:55 AM55.4 °F53.6 °F94 %28.87 in10.0 miSouth (190°)13.8 mph24.2 mph0.04 inOvercast
9:15 AM55.4 °F53.6 °F94 %28.86 in8.0 miSouth (180°)11.5 mph25.3 mphOvercast
9:35 AM53.6 °F51.8 °F94 %28.84 in9.0 miSouth (180°)11.5 mph18.4 mphOvercast
9:55 AM53.6 °F53.6 °F100 %28.80 in10.0 miSouth (170°)9.2 mph23.0 mphOvercast
10:15 AM53.6 °F53.6 °F100 %28.80 in10.0 miSouth (190°)13.8 mph24.2 mphOvercast
10:35 AM55.4 °F53.6 °F94 %28.78 in10.0 miSouth (190°)12.7 mph28.8 mphOvercast
10:55 AM55.4 °F51.8 °F88 %28.76 in10.0 miSouth (190°)16.1 mph33.4 mphOvercast
11:15 AM55.4 °F51.8 °F88 %28.76 in10.0 miSSW (200°)17.3 mph26.5 mphOvercast
11:35 AM46.4 °F39.2 °F76 %28.82 in5.0 miWNW (290°)20.7 mph39.1 mph0.02 inOvercast
11:55 AM42.8 °F39.2 °F87 %28.83 in10.0 miWest (280°)13.8 mph25.3 mph0.03 inMostly Cloudy
12:15 PM42.8 °F39.2 °F87 %28.84 in10.0 miWest (270°)8.1 mph0.01 inMostly Cloudy
12:35 PM44.6 °F41.0 °F87 %28.88 in10.0 miWSW (250°)9.2 mph19.6 mph0.01 inMostly Cloudy
12:55 PM44.6 °F39.2 °F81 %28.91 in10.0 miWest (260°)15.0 mph23.0 mph0.01 inOvercast
1:15 PM44.6 °F35.6 °F71 %28.93 in10.0 miWest (260°)18.4 mph26.5 mphMostly Cloudy
1:35 PM44.6 °F35.6 °F71 %28.94 in10.0 miWest (260°)13.8 mph23.0 mphMostly Cloudy
1:55 PM39.2 °F32.0 °F75 %28.98 in8.0 miWest (280°)24.2 mph40.3 mphMostly Cloudy
2:15 PM39.2 °F33.8 °F81 %28.99 in10.0 miWest (280°)15.0 mph24.2 mphScattered Clouds
2:35 PM41.0 °F32.0 °F70 %29.00 in10.0 miWest (270°)20.7 mph29.9 mphClear
2:55 PM42.8 °F28.4 °F57 %29.02 in10.0 miWest (260°)13.8 mph33.4 mphClear
3:15 PM41.0 °F26.6 °F57 %29.03 in10.0 miWest (270°)16.1 mph25.3 mphPartly Cloudy
3:35 PM42.8 °F24.8 °F49 %29.05 in10.0 miWest (260°)18.4 mph25.3 mphMostly Cloudy
3:55 PM41.0 °F21.2 °F45 %29.06 in10.0 miWest (260°)12.7 mph29.9 mphMostly Cloudy
4:15 PM39.2 °F21.2 °F49 %29.07 in10.0 miWest (270°)12.7 mph21.9 mphMostly Cloudy
4:35 PM39.2 °F21.2 °F49 %29.08 in10.0 miWest (260°)12.7 mph25.3 mphOvercast
4:55 PM39.2 °F21.2 °F49 %29.10 in10.0 miWSW (250°)11.5 mph20.7 mphMostly Cloudy
5:15 PM37.4 °F19.4 °F48 %29.12 in10.0 miWest (260°)16.1 mph27.6 mphMostly Cloudy
5:35 PM37.4 °F15.8 °F41 %29.15 in10.0 miWest (260°)17.3 mph29.9 mphMostly Cloudy
5:55 PM37.4 °F15.8 °F41 %29.17 in10.0 miWSW (240°)20.7 mph29.9 mphMostly Cloudy
6:15 PM35.6 °F14.0 °F41 %29.18 in10.0 miWSW (250°)20.7 mph29.9 mphScattered Clouds
6:55 PM35.6 °F12.2 °F38 %29.20 in10.0 miWSW (240°)16.1 mph26.5 mphMostly Cloudy
7:15 PM35.6 °F12.2 °F38 %29.20 in10.0 miWSW (250°)12.7 mph27.6 mphOvercast
7:35 PM35.6 °F12.2 °F38 %29.21 in10.0 miWSW (250°)13.8 mphOvercast
7:55 PM35.6 °F12.2 °F38 %29.23 in10.0 miWest (260°)19.6 mph31.1 mphOvercast
8:15 PM33.8 °F12.2 °F41 %29.24 in10.0 miWSW (250°)15.0 mph20.7 mphOvercast
8:35 PM33.8 °F12.2 °F41 %29.24 in10.0 miWSW (240°)19.6 mph28.8 mphOvercast
8:55 PM33.8 °F12.2 °F41 %29.27 in10.0 miWSW (250°)25.3 mph33.4 mphMostly Cloudy
9:15 PM30.2 °F12.2 °F47 %29.28 in10.0 miWest (270°)18.4 mph27.6 mphScattered Clouds
9:55 PM30.2 °F12.2 °F47 %29.29 in10.0 miWSW (250°)16.1 mph24.2 mphClear
10:15 PM30.2 °F10.4 °F44 %29.31 in10.0 miWSW (250°)20.7 mph35.7 mphScattered Clouds
10:35 PM30.2 °F8.6 °F40 %29.32 in10.0 miWSW (250°)19.6 mph34.5 mphScattered Clouds
10:55 PM30.2 °F6.8 °F37 %29.33 in10.0 miWest (260°)15.0 mph28.8 mphPartly Cloudy
11:15 PM30.2 °F6.8 °F37 %29.34 in10.0 miWSW (240°)18.4 mph26.5 mphMostly Cloudy
11:35 PM28.4 °F8.6 °F43 %29.35 in10.0 miWNW (290°)8.1 mph17.3 mphOvercast
11:55 PM28.4 °F8.6 °F43 %29.37 in10.0 miWest (260°)26.5 mph34.5 mphPartly Cloudy
Hourly data recorded from KWVL, located miles away from Fairfield, Maine







STORIES FROM OUR PARTNERS